Location: Étang Rond
(42.7927°N, 1.0661°E)
Time: 02:42:19
(UTC+00:00)

Cosmos 1943 Rocket - Visible Passes

Search period start: 15 February 2026 00:00
Search period end: 25 February 2026 00:00
Orbit: 811 x 842 km, 71.0° (Epoch: 13 February)

Date Brightness Start Highest point End Pass type
(mag) Time Alt. Az. Time Alt. Az. Time Alt. Az.
19 Feb 4.6 06:12:44 10° N 06:16:32 18° NE 06:20:20 10° E visible
20 Feb 4.7 05:53:20 10° N 05:56:47 16° NE 06:00:14 10° E visible
21 Feb 4.7 05:33:59 10° NNE 05:37:02 15° NE 05:40:05 10° ENE visible
22 Feb 4.8 05:14:42 10° NNE 05:17:15 13° NE 05:19:49 10° ENE visible
23 Feb 4.9 04:55:33 10° NNE 04:57:28 12° NE 04:59:24 10° ENE visible
24 Feb 5.1 04:36:48 10° NNE 04:37:41 10° NE 04:38:33 10° NE visible
